Location: Niles Junction
(37.5763°N, 121.9714°W)
Time: 04:03:14
(UTC+00:00)

ALOS - Pass Details

Date: 29 October 2020
Orbit: 683 x 685 km, 97.9° (Epoch: 23 November)

Event Time Altitude Azimuth Distance (km) Brightness Sun altitude
Rises 12:20:37 0° 18° (NNE) 3,054 5.9 -26.2°
Reaches altitude 10° 12:22:55 10° 23° (NNE) 2,134 5.1 -25.8°
Maximum altitude 12:27:28 51° 99° (E) 863 3.1 -24.9°
Drops below altitude 10° 12:31:58 10° 176° (S) 2,120 4.8 -24.0°
Sets 12:34:15 0° 181° (S) 3,031 5.6 -23.5°
